EW1107 Weather Reports


Display with metric or nautical units.
time (UTC)temp
F
wind
direction
speed
MPH
gust
MPH
rain 1hr
in
rain 24hr
in
rain mn
in
humidity
%
barometer
mb
20260504002506 58 180 0.0 0.0 0.00 0.00 0.00 53 1012.6
20260504002104 58 187 0.0 0.0 0.00 0.00 0.00 53 1012.7
20260504001504 59 188 0.0 0.0 0.00 0.00 0.00 53 1012.8
20260504001003 59 189 0.0 1.0 0.00 0.00 0.00 53 1012.8
20260504000503 59 190 0.0 7.0 0.00 0.00 0.00 52 1012.8
20260504000002 59 193 0.0 7.0 0.00 0.00 0.00 52 1012.8
20260503235501 59 209 0.0 8.0 0.00 0.00 0.00 52 1012.8
20260503235106 59 179 2.0 8.0 0.00 0.00 0.00 52 1012.9
20260503234628 59 219 1.0 8.0 0.00 0.00 0.00 53 1012.9
20260503234502 60 212 0.0 1.0 0.00 0.00 0.00 53 1012.9
20260503234103 60 197 0.0 1.0 0.00 0.00 0.00 53 1012.9
20260503233558 60 200 0.0 8.0 0.00 0.00 0.00 53 1013.0
20260503233057 60 217 0.0 8.0 0.00 0.00 0.00 52 1013.0
20260503232556 60 202 3.0 8.0 0.00 0.00 0.00 52 1013.1
20260503232057 60 207 1.0 7.0 0.00 0.00 0.00 53 1013.1
20260503231556 60 209 0.0 7.0 0.00 0.00 0.00 52 1013.1
20260503231055 60 188 1.0 7.0 0.00 0.00 0.00 52 1013.1
20260503230557 60 196 0.0 6.0 0.00 0.00 0.00 52 1013.1
20260503230054 61 190 1.0 6.0 0.00 0.00 0.00 52 1013.1
20260503225552 61 199 0.0 5.0 0.00 0.00 0.00 51 1013.1
20260503225053 61 207 1.0 6.0 0.00 0.00 0.00 51 1013.1
20260503224551 61 209 0.0 6.0 0.00 0.00 0.00 51 1013.0
20260503224052 62 200 0.0 6.0 0.00 0.00 0.00 51 1013.1
20260503223551 62 224 1.0 9.0 0.00 0.00 0.00 51 1013.1
20260503223050 62 204 3.0 10.0 0.00 0.00 0.00 50 1013.1
20260503222552 62 212 3.0 11.0 0.00 0.00 0.00 50 1013.1
20260503222048 62 190 0.0 8.0 0.00 0.00 0.00 50 1013.2
20260503221556 62 211 2.0 8.0 0.00 0.00 0.00 50 1013.1
20260503221047 62 232 3.0 8.0 0.00 0.00 0.00 50 1013.2
20260503220547 62 201 2.0 7.0 0.00 0.00 0.00 50 1013.2
20260503220047 62 199 0.0 1.0 0.00 0.00 0.00 49 1013.2
20260503215547 63 193 0.0 0.0 0.00 0.00 0.00 49 1013.2
20260503215046 63 196 0.0 0.0 0.00 0.00 0.00 49 1013.2
20260503214546 63 213 0.0 0.0 0.00 0.00 0.00 49 1013.3
20260503214050 63 208 0.0 0.0 0.00 0.00 0.00 49 1013.2
20260503213546 63 209 0.0 0.0 0.00 0.00 0.00 48 1013.2
20260503213046 64 209 0.0 0.0 0.00 0.00 0.00 48 1013.2
20260503212545 64 213 0.0 0.0 0.00 0.00 0.00 47 1013.2
20260503212044 64 213 0.0 0.0 0.00 0.00 0.00 47 1013.2
20260503211545 64 208 0.0 0.0 0.00 0.00 0.00 46 1013.2
20260503211044 64 208 0.0 0.0 0.00 0.00 0.00 46 1013.3
20260503210545 65 199 0.0 5.0 0.00 0.00 0.00 46 1013.2
20260503210045 65 229 0.0 6.0 0.00 0.00 0.00 46 1013.2
20260503205550 65 223 0.0 5.0 0.00 0.00 0.00 45 1013.3
20260503205045 65 207 0.0 4.0 0.00 0.00 0.00 45 1013.3
20260503204546 66 209 1.0 7.0 0.00 0.00 0.00 44 1013.3
20260503204044 66 195 1.0 7.0 0.00 0.00 0.00 44 1013.3
20260503203544 66 188 0.0 6.0 0.00 0.00 0.00 44 1013.2
20260503203054 66 171 0.0 7.0 0.00 0.00 0.00 44 1013.2
20260503202643 66 184 3.0 8.0 0.00 0.00 0.00 43 1013.2
20260503202043 67 206 1.0 8.0 0.00 0.00 0.00 43 1013.2
20260503201548 67 202 0.0 10.0 0.00 0.00 0.00 42 1013.2
20260503201043 67 205 2.0 10.0 0.00 0.00 0.00 42 1013.2
20260503200542 67 201 4.0 9.0 0.00 0.00 0.00 42 1013.2
20260503200042 68 212 3.0 12.0 0.00 0.00 0.00 41 1013.2
20260503195546 68 213 2.0 9.0 0.00 0.00 0.00 41 1013.3
20260503195044 68 193 0.0 11.0 0.00 0.00 0.00 41 1013.3
20260503194550 69 201 4.0 12.0 0.00 0.00 0.00 40 1013.3
20260503194042 69 194 5.0 15.0 0.00 0.00 0.00 40 1013.3
20260503193542 69 181 6.0 15.0 0.00 0.00 0.00 39 1013.3
20260503193043 69 207 4.0 15.0 0.00 0.00 0.00 39 1013.3
20260503192540 69 188 6.0 15.0 0.00 0.00 0.00 39 1013.3
20260503192040 69 217 4.0 14.0 0.00 0.00 0.00 39 1013.3
20260503191540 69 169 8.0 15.0 0.00 0.00 0.00 39 1013.3
20260503191042 69 165 6.0 15.0 0.00 0.00 0.00 39 1013.3
20260503190540 70 201 2.0 11.0 0.00 0.00 0.00 39 1013.3
20260503190045 70 186 4.0 11.0 0.00 0.00 0.00 39 1013.3
20260503185539 70 187 5.0 12.0 0.00 0.00 0.00 39 1013.2
20260503185039 70 232 5.0 12.0 0.00 0.00 0.00 38 1013.2
20260503184539 70 202 3.0 11.0 0.00 0.00 0.00 38 1013.2
20260503184039 70 202 2.0 10.0 0.00 0.00 0.00 38 1013.1
20260503183539 71 188 1.0 8.0 0.00 0.00 0.00 37 1013.1
20260503183038 71 178 1.0 10.0 0.00 0.00 0.00 37 1013.0
20260503182538 72 177 3.0 10.0 0.00 0.00 0.00 36 1013.0
20260503182038 72 196 3.0 12.0 0.00 0.00 0.00 36 1012.9
20260503181639 72 192 5.0 13.0 0.00 0.00 0.00 35 1013.0
20260503181037 73 202 4.0 13.0 0.00 0.00 0.00 35 1012.9
20260503180537 73 211 4.0 11.0 0.00 0.00 0.00 35 1012.9
20260503180036 73 171 4.0 12.0 0.00 0.00 0.00 34 1012.9
20260503175536 74 183 3.0 15.0 0.00 0.00 0.00 34 1012.9
20260503175036 74 203 7.0 15.0 0.00 0.00 0.00 33 1012.8
20260503174536 75 184 4.0 11.0 0.00 0.00 0.00 33 1012.7
20260503174036 75 187 5.0 17.0 0.00 0.00 0.00 33 1012.8
20260503173536 75 202 4.0 17.0 0.00 0.00 0.00 32 1012.7
20260503173039 76 200 1.0 12.0 0.00 0.00 0.00 32 1012.8
20260503172537 76 180 6.0 12.0 0.00 0.00 0.00 31 1012.7
20260503172035 76 211 3.0 13.0 0.00 0.00 0.00 30 1012.7
20260503171544 77 182 5.0 13.0 0.00 0.00 0.00 30 1012.8
20260503171034 77 200 7.0 13.0 0.00 0.00 0.00 29 1012.7
20260503170536 77 219 9.0 17.0 0.00 0.00 0.00 29 1012.8
20260503150526 79 183 10.0 26.0 0.00 0.00 0.00 26 1013.2
20260503131012 79 189 12.0 26.0 0.00 0.00 0.00 27 1014.6
20260503130510 79 224 14.0 28.0 0.00 0.00 0.00 26 1014.6
20260503110556 77 267 15.0 23.0 0.00 0.00 0.00 27 1015.7
20260503110109 75 217 10.0 26.0 0.00 0.00 0.00 28 1015.6
20260503081523 72 260 5.0 23.0 0.00 0.00 0.00 39 1016.9
20260503081026 70 227 12.0 24.0 0.00 0.00 0.00 40 1016.9
20260503080521 70 219 10.0 25.0 0.00 0.00 0.00 40 1017.0
20260503072513 68 184 6.0 15.0 0.00 0.00 0.00 44 1017.2
20260503072012 68 259 8.0 19.0 0.00 0.00 0.00 44 1017.2
20260503071516 67 238 11.0 23.0 0.00 0.00 0.00 44 1017.2
20260503071011 67 225 10.0 23.0 0.00 0.00 0.00 44 1017.2
20260503070509 67 194 8.0 22.0 0.00 0.00 0.00 43 1017.2
20260503060109 62 219 5.0 14.0 0.00 0.00 0.00 53 1017.0
20260503055047 61 153 6.0 14.0 0.00 0.00 0.00 55 1017.0
20260503054556 60 165 7.0 20.0 0.00 0.00 0.00 55 1017.1
20260503054045 60 155 9.0 20.0 0.00 0.00 0.00 55 1017.2
20260503053543 59 184 8.0 20.0 0.00 0.00 0.00 56 1017.2
20260503053042 59 191 5.0 16.0 0.00 0.00 0.00 57 1017.3
20260503052540 58 186 7.0 16.0 0.00 0.00 0.00 58 1017.3
20260503052039 58 206 8.0 14.0 0.00 0.00 0.00 58 1017.3
20260503051538 57 167 1.0 11.0 0.00 0.00 0.00 59 1017.3
20260503051036 57 165 2.0 16.0 0.00 0.00 0.00 60 1017.3
20260503050534 57 169 3.0 16.0 0.00 0.00 0.00 61 1017.4
20260503050039 56 199 2.0 11.0 0.00 0.00 0.00 61 1017.5
20260503045534 56 178 0.0 7.0 0.00 0.00 0.00 63 1017.5
20260503045032 55 150 1.0 10.0 0.00 0.00 0.00 64 1017.5
20260503044531 55 164 3.0 10.0 0.00 0.00 0.00 64 1017.5
20260503044027 54 165 2.0 9.0 0.00 0.00 0.00 66 1017.5
20260503043528 54 148 3.0 8.0 0.00 0.00 0.00 66 1017.5
20260503043024 53 160 1.0 7.0 0.00 0.00 0.00 68 1017.5
20260503042524 53 147 0.0 8.0 0.00 0.00 0.00 69 1017.5
20260503042022 52 157 1.0 9.0 0.00 0.00 0.00 70 1017.6
20260503041529 51 157 1.0 9.0 0.00 0.00 0.00 71 1017.6
20260503041018 51 158 0.0 1.0 0.00 0.00 0.00 72 1017.6
20260503040517 50 153 0.0 0.0 0.00 0.00 0.00 73 1017.6
20260503040017 50 144 0.0 0.0 0.00 0.00 0.00 74 1017.7
20260503035516 49 164 0.0 0.0 0.00 0.00 0.00 74 1017.7
20260503035016 49 149 0.0 0.0 0.00 0.00 0.00 74 1017.7
20260503034516 49 207 0.0 0.0 0.00 0.00 0.00 74 1017.7
20260503034015 49 202 0.0 0.0 0.00 0.00 0.00 74 1017.7
20260503033516 49 202 0.0 0.0 0.00 0.00 0.00 74 1017.7
20260503033014 49 203 0.0 0.0 0.00 0.00 0.00 74 1017.8
20260503032518 49 203 0.0 0.0 0.00 0.00 0.00 74 1017.7
20260503032015 49 203 0.0 0.0 0.00 0.00 0.00 74 1017.7
20260503031513 49 203 0.0 0.0 0.00 0.00 0.00 74 1017.7
20260503031013 49 203 0.0 0.0 0.00 0.00 0.00 73 1017.6
20260503030513 49 203 0.0 0.0 0.00 0.00 0.00 73 1017.7
20260503030014 49 203 0.0 0.0 0.00 0.00 0.00 73 1017.7
20260503025513 49 203 0.0 0.0 0.00 0.00 0.00 73 1017.7
20260503025012 49 203 0.0 0.0 0.00 0.00 0.00 73 1017.6
20260503024512 49 203 0.0 0.0 0.00 0.00 0.00 74 1017.7
20260503024012 49 203 0.0 0.0 0.00 0.00 0.00 74 1017.7
20260503023513 49 203 0.0 0.0 0.00 0.00 0.00 74 1017.6
20260503023010 49 203 0.0 0.0 0.00 0.00 0.00 74 1017.7
20260503022510 49 203 0.0 0.0 0.00 0.00 0.00 74 1017.7
20260503022010 49 203 0.0 0.0 0.00 0.00 0.00 74 1017.7
20260503021519 49 203 0.0 0.0 0.00 0.00 0.00 74 1017.7
20260503021010 49 203 0.0 0.0 0.00 0.00 0.00 74 1017.7
20260503020510 49 203 0.0 0.0 0.00 0.00 0.00 74 1017.8
20260503020010 49 203 0.0 0.0 0.00 0.00 0.00 73 1017.8
20260503015509 49 203 0.0 0.0 0.00 0.00 0.00 73 1017.7
20260503015009 50 203 0.0 0.0 0.00 0.00 0.00 73 1017.8
20260503014508 50 203 0.0 0.0 0.00 0.00 0.00 73 1017.8
20260503014009 50 203 0.0 0.0 0.00 0.00 0.00 73 1017.9
20260503013508 50 203 0.0 0.0 0.00 0.00 0.00 73 1017.8
20260503013008 50 203 0.0 0.0 0.00 0.00 0.00 74 1017.9
20260503012507 49 203 0.0 0.0 0.00 0.00 0.00 74 1017.8
20260503012009 49 203 0.0 0.0 0.00 0.00 0.00 73 1017.9
20260503011506 49 203 0.0 0.0 0.00 0.00 0.00 74 1017.9
20260503011006 49 203 0.0 0.0 0.00 0.00 0.00 74 1017.9
20260503010506 49 203 0.0 0.0 0.00 0.00 0.00 74 1018.0
20260503010006 49 203 0.0 0.0 0.00 0.00 0.00 74 1017.9
20260503005505 49 203 0.0 0.0 0.00 0.00 0.00 74 1017.9
20260503005005 49 203 0.0 0.0 0.00 0.00 0.00 73 1018.0
20260503004503 50 203 0.0 0.0 0.00 0.00 0.00 73 1017.9
20260503004006 50 203 0.0 0.0 0.00 0.00 0.00 72 1017.9
20260503003502 50 203 0.0 0.0 0.00 0.00 0.00 72 1017.9
20260503003002 50 203 0.0 0.0 0.00 0.00 0.00 72 1018.0